Home   Weather   Asuncion   Past weeks

Flag for Paraguay Past Weather in Asuncion, Paraguay — Yesterday and Last 2 Weeks

Now
81 °F

Clear.


Feels Like: 83 °F
Forecast: 75 / 94 °F
Wind: 6 mph from Southeast

Location: Asuncion / Aeropuerto

Current Time: Jan 22, 2017 at 9:52:38 pm

Latest Report: Jan 22, 2017 at 9:00 pm


Visibility: 6 mi

Pressure: 29.74 "Hg

Humidity: 66%

Dew Point: 68 °F

Location of AsuncionLocation

Past Weather in Asuncion — Graph

°F

Asuncion Temperature Yesterday

Maximum temperature yesterday: 99 °F (at 4:00 pm)
Minimum temperature yesterday: 75 °F (at 6:00 pm)
Average temperature yesterday: 85 °F

High & Low Weather Summary for the Past Weeks

 TemperatureHumidityPressure
High102 °F (Jan 9, 3:00 pm)100% (Jan 16, 8:30 am)29.95 "Hg (Jan 16, 8:30 am)
Low72 °F (Jan 16, 8:30 am)31% (Jan 15, 2:00 pm)29.56 "Hg (Jan 9, 6:00 pm)
Average86 °F65%29.77 "Hg
* Reported Jan 7 8:00 pm — Jan 22 8:00 pm, Asuncion, Weather by CustomWeather, © 2017

Note: Actual official high and low records may vary slightly from our data, if they occured in-between our weather recording intervals... More about our weather records

Advertising

Asuncion Weather History for the Previous 24 Hours

Scroll right to see more
 ConditionsComfort  
Time TempWeatherWind HumidityBarometerVisibility
8:00 pm
Sun, Jan 22
81 °FPassing clouds.5 mph66%29.74 "HgN/A
7:00 pm82 °FBroken clouds.8 mph62%29.71 "HgN/A
6:00 pm86 °FThunderstorms. Broken clouds.9 mph55%29.74 "HgN/A
5:00 pm86 °FThundershowers. Broken clouds.10 mph59%29.77 "HgN/A
4:00 pm95 °FThunderstorms. Scattered clouds.8 mph47%29.77 "HgN/A
3:00 pm91 °FThunderstorms. Partly sunny.6 mph52%29.77 "HgN/A
2:00 pm97 °FThunderstorms. Scattered clouds.3 mph47%29.83 "HgN/A
1:00 pm93 °FScattered clouds.7 mph49%29.86 "HgN/A
12:00 pm91 °FPassing clouds.7 mph56%29.86 "HgN/A
11:00 am88 °FSunny.5 mph62%29.86 "Hg10 mi
10:30 am86 °FSunny.5 mph66%29.86 "Hg10 mi
10:00 am84 °FPassing clouds.7 mph66%29.89 "HgN/A
9:30 am84 °FPassing clouds.7 mph66%29.89 "HgN/A
9:00 am82 °FPassing clouds.7 mph70%29.86 "HgN/A
8:30 am81 °FSunny.6 mph74%29.86 "Hg10 mi
8:00 am79 °FPassing clouds.6 mph74%29.86 "HgN/A
7:00 am75 °FSunny.No wind78%29.86 "Hg10 mi
6:00 am73 °FClear.No wind83%29.86 "Hg10 mi
5:00 am72 °FClear.No wind88%29.83 "Hg10 mi
4:00 am73 °FClear.No wind78%29.83 "Hg10 mi
3:00 am73 °FClear.No wind83%29.86 "Hg10 mi
2:00 am75 °FClear.No wind78%29.86 "Hg10 mi
1:00 am75 °FClear.3 mph78%29.89 "Hg10 mi
12:00 am77 °FClear.6 mph79%29.86 "Hg10 mi
11:00 pm
Sat, Jan 21
77 °FPassing clouds.8 mph79%29.86 "HgN/A
10:00 pm77 °FClear.5 mph83%29.86 "Hg10 mi
9:00 pm77 °FPassing clouds.7 mph79%29.86 "HgN/A
Weather by CustomWeather, © 2017

See weather overviewHow to use our weather pages